AFR407 SCEL-LFPG

Flight info

Callsign AFR407
Flight time N/A
Altitude 34000
Route DONTI6A DONTI UQ802 PUNAP/N0502F330 UT296 BUVSA/N0499F340 UQ815 LOA/N0497F350 UL540 VIR UL322 PAKEM DCT SUSNO UL322 KUMOS DCT BUVIP/N0497F370 UL322 TIM UM527 TRAPP DCT 11N055W DCT MUNTR/M085F370 DCT 22N045W/M085F390 28N040W 38N030W 41N025W 43N020W/M085F410 DCT PASAS DCT SIVIR/M085F400 UN460 RIVAK/N0495F400 DCT KOLEK DCT AKEMO DCT TERPO DCT ANG/N0500F300 UN741 TEMTO DCT ROMGO
Aircraft A359/H-SDE2E3GHIJ3J4J5LM1ORWXY/LB1D1

Departure

Time 2026-05-04 21:48
Airport Comodoro Arturo Merino Benítez International Airport (SCEL)

Arrival

Time N/A
Airport Charles de Gaulle International Airport (LFPG)
Time Latitude Longitude Altitude Speed Heading
2026-05-04 21:22 -33.40239 -70.79790 1571 ft 0 kts 178°
2026-05-04 21:34 -33.40233 -70.79790 1571 ft 2 kts 177°
2026-05-04 21:34 -33.40214 -70.79792 1571 ft 2 kts 175°
2026-05-04 21:34 -33.40199 -70.79793 1571 ft 3 kts 190°
2026-05-04 21:35 -33.40185 -70.79786 1571 ft 3 kts 240°
2026-05-04 21:35 -33.40179 -70.79764 1571 ft 3 kts 266°
2026-05-04 21:35 -33.40178 -70.79745 1571 ft 1 kts 267°
2026-05-04 21:35 -33.40178 -70.79739 1571 ft 0 kts 267°
2026-05-04 21:39 -33.40178 -70.79756 1571 ft 7 kts 268°
2026-05-04 21:39 -33.40176 -70.79838 1571 ft 11 kts 273°
2026-05-04 21:39 -33.40170 -70.79923 1571 ft 10 kts 276°
2026-05-04 21:40 -33.40146 -70.79993 1572 ft 8 kts 316°
2026-05-04 21:40 -33.40097 -70.80011 1573 ft 7 kts 358°
2026-05-04 21:40 -33.40045 -70.80013 1573 ft 8 kts 358°
2026-05-04 21:40 -33.39991 -70.80016 1572 ft 8 kts 356°
2026-05-04 21:41 -33.39925 -70.80021 1572 ft 11 kts 357°
2026-05-04 21:41 -33.39844 -70.80025 1572 ft 13 kts 357°
2026-05-04 21:41 -33.39749 -70.80029 1572 ft 15 kts 357°
2026-05-04 21:41 -33.39641 -70.80036 1572 ft 17 kts 357°
2026-05-04 21:42 -33.39520 -70.80043 1572 ft 18 kts 357°
2026-05-04 21:42 -33.39388 -70.80051 1572 ft 19 kts 358°
2026-05-04 21:42 -33.39251 -70.80057 1572 ft 21 kts 356°
2026-05-04 21:42 -33.39104 -70.80068 1572 ft 22 kts 356°
2026-05-04 21:43 -33.38952 -70.80077 1573 ft 22 kts 356°
2026-05-04 21:43 -33.38794 -70.80084 1573 ft 23 kts 357°
2026-05-04 21:43 -33.38633 -70.80094 1573 ft 24 kts 357°
2026-05-04 21:43 -33.38463 -70.80105 1573 ft 25 kts 357°
2026-05-04 21:44 -33.38287 -70.80115 1572 ft 26 kts 357°
2026-05-04 21:44 -33.38106 -70.80125 1572 ft 26 kts 356°
2026-05-04 21:44 -33.37923 -70.80132 1572 ft 26 kts 358°
2026-05-04 21:44 -33.37739 -70.80143 1572 ft 27 kts 357°
2026-05-04 21:45 -33.37553 -70.80150 1572 ft 27 kts 358°
2026-05-04 21:45 -33.37373 -70.80157 1573 ft 26 kts 358°
2026-05-04 21:45 -33.37207 -70.80166 1573 ft 17 kts 357°
2026-05-04 21:45 -33.37130 -70.80211 1574 ft 12 kts 311°
2026-05-04 21:46 -33.37109 -70.80282 1577 ft 7 kts 269°
2026-05-04 21:46 -33.37115 -70.80319 1579 ft 4 kts 254°
2026-05-04 21:46 -33.37129 -70.80345 1580 ft 5 kts 233°
2026-05-04 21:46 -33.37164 -70.80374 1580 ft 8 kts 197°
2026-05-04 21:47 -33.37204 -70.80374 1579 ft 0 kts 175°
2026-05-04 21:47 -33.37262 -70.80370 1579 ft 33 kts 178°
2026-05-04 21:47 -33.37733 -70.80345 1578 ft 101 kts 177°
2026-05-04 21:48 -33.38643 -70.80298 1581 ft 159 kts 177°
2026-05-04 21:48 -33.39899 -70.80212 1831 ft 188 kts 173°
2026-05-04 21:48 -33.41166 -70.80094 2715 ft 179 kts 176°
2026-05-04 21:48 -33.42457 -70.80022 3197 ft 192 kts 178°
2026-05-04 21:49 -33.43847 -70.79964 3378 ft 206 kts 178°
2026-05-04 21:49 -33.45319 -70.79893 3521 ft 222 kts 177°
2026-05-04 21:49 -33.46917 -70.79809 3680 ft 237 kts 177°
2026-05-04 21:49 -33.48628 -70.79716 3823 ft 254 kts 177°
2026-05-04 21:50 -33.50416 -70.79683 4091 ft 265 kts 184°
2026-05-04 21:50 -33.52190 -70.80324 4492 ft 270 kts 212°
2026-05-04 21:50 -33.53491 -70.81933 4948 ft 272 kts 242°
2026-05-04 21:50 -33.54112 -70.84073 5482 ft 272 kts 258°
2026-05-04 21:51 -33.54519 -70.86300 6014 ft 274 kts 260°
2026-05-04 21:51 -33.54914 -70.88546 6563 ft 276 kts 261°
2026-05-04 21:51 -33.55313 -70.90773 7128 ft 276 kts 261°
2026-05-04 21:51 -33.55724 -70.93030 7677 ft 277 kts 261°
2026-05-04 21:52 -33.56139 -70.95301 8201 ft 279 kts 261°
2026-05-04 21:52 -33.56562 -70.97596 8751 ft 282 kts 261°
2026-05-04 21:52 -33.56970 -70.99864 9095 ft 283 kts 262°
2026-05-04 21:52 -33.57311 -71.02206 9643 ft 285 kts 263°
2026-05-04 21:53 -33.57524 -71.03764 10027 ft 285 kts 264°
2026-05-04 21:53 -33.57638 -71.06146 10371 ft 290 kts 278°
2026-05-04 21:53 -33.57033 -71.08492 10528 ft 300 kts 301°
2026-05-04 21:53 -33.55644 -71.10368 10686 ft 313 kts 324°
2026-05-04 21:54 -33.53671 -71.11585 10905 ft 326 kts 336°
2026-05-04 21:54 -33.51518 -71.12595 11112 ft 338 kts 337°
2026-05-04 21:54 -33.49285 -71.13638 11322 ft 350 kts 336°
2026-05-04 21:54 -33.46981 -71.14727 11504 ft 361 kts 336°
2026-05-04 21:55 -33.44610 -71.15857 11715 ft 371 kts 336°
2026-05-04 21:55 -33.42221 -71.17001 12015 ft 377 kts 336°
2026-05-04 21:55 -33.39766 -71.18175 12424 ft 380 kts 336°
2026-05-04 21:55 -33.37302 -71.19355 12850 ft 382 kts 336°
2026-05-04 21:56 -33.34815 -71.20546 13258 ft 385 kts 336°
2026-05-04 21:56 -33.32323 -71.21737 13662 ft 387 kts 335°
2026-05-04 21:56 -33.29807 -71.22938 14062 ft 390 kts 335°
2026-05-04 21:56 -33.27277 -71.24152 14403 ft 393 kts 335°
2026-05-04 21:57 -33.24724 -71.25374 14765 ft 395 kts 335°
2026-05-04 21:57 -33.22189 -71.26589 15084 ft 398 kts 335°
2026-05-04 21:57 -33.19615 -71.27821 15436 ft 400 kts 335°
2026-05-04 21:57 -33.16973 -71.28929 15787 ft 405 kts 342°
2026-05-04 21:58 -33.14152 -71.29312 16128 ft 414 kts 358°
2026-05-04 21:58 -33.11294 -71.28666 16455 ft 425 kts 15°
2026-05-04 21:58 -33.08568 -71.27211 16817 ft 431 kts 22°
2026-05-04 21:58 -33.05880 -71.25586 17123 ft 435 kts 22°
2026-05-04 21:59 -33.03171 -71.23941 17445 ft 438 kts 22°
2026-05-04 21:59 -33.00442 -71.22298 17742 ft 441 kts 22°
2026-05-04 21:59 -32.97688 -71.20656 18052 ft 443 kts 21°
2026-05-04 21:59 -32.94846 -71.19411 18351 ft 439 kts
2026-05-04 22:00 -32.91838 -71.18964 18650 ft 435 kts 358°
2026-05-04 22:00 -32.88813 -71.18885 18965 ft 435 kts 354°
2026-05-04 22:00 -32.85778 -71.18974 19288 ft 435 kts 353°
2026-05-04 22:00 -32.82743 -71.19121 19618 ft 437 kts 352°
2026-05-04 22:01 -32.79690 -71.19270 19957 ft 439 kts 352°
2026-05-04 22:01 -32.76627 -71.19390 20277 ft 441 kts 353°
2026-05-04 22:01 -32.73549 -71.19483 20613 ft 443 kts 353°
2026-05-04 22:01 -32.70453 -71.19553 20942 ft 446 kts 353°
2026-05-04 22:02 -32.67344 -71.19613 21268 ft 448 kts 353°
2026-05-04 22:02 -32.64216 -71.19667 21595 ft 450 kts 353°
2026-05-04 22:02 -32.61120 -71.19718 21907 ft 452 kts 353°
2026-05-04 22:02 -32.57966 -71.19772 22221 ft 454 kts 353°
2026-05-04 22:03 -32.54797 -71.19826 22553 ft 456 kts 353°
2026-05-04 22:03 -32.51615 -71.19883 22880 ft 458 kts 353°
2026-05-04 22:03 -32.48416 -71.19942 23199 ft 460 kts 353°
2026-05-04 22:03 -32.45202 -71.20002 23527 ft 462 kts 353°
2026-05-04 22:04 -32.41983 -71.20061 23842 ft 464 kts 353°
2026-05-04 22:04 -32.38742 -71.20121 24138 ft 466 kts 353°
2026-05-04 22:04 -32.35486 -71.20180 24426 ft 469 kts 353°
2026-05-04 22:04 -32.32220 -71.20238 24741 ft 470 kts 353°
2026-05-04 22:05 -32.28939 -71.20297 25014 ft 472 kts 353°
2026-05-04 22:05 -32.25643 -71.20354 25291 ft 474 kts 353°
2026-05-04 22:05 -32.22376 -71.20414 25589 ft 476 kts 353°
2026-05-04 22:05 -32.19055 -71.20476 25904 ft 478 kts 353°
2026-05-04 22:06 -32.15683 -71.20540 26214 ft 480 kts 353°
2026-05-04 22:06 -32.12375 -71.20600 26520 ft 482 kts 353°
2026-05-04 22:06 -32.09007 -71.20661 26828 ft 483 kts 352°
2026-05-04 22:06 -32.05636 -71.20723 27107 ft 486 kts 352°
2026-05-04 22:07 -32.02243 -71.20785 27356 ft 488 kts 352°
2026-05-04 22:07 -31.98843 -71.20847 27648 ft 489 kts 352°
2026-05-04 22:07 -31.95439 -71.20908 27954 ft 489 kts 352°
2026-05-04 22:07 -31.92017 -71.20968 28142 ft 492 kts 352°
2026-05-04 22:08 -31.88581 -71.21029 28351 ft 495 kts 352°
2026-05-04 22:08 -31.85122 -71.21090 28616 ft 497 kts 352°
2026-05-04 22:08 -31.81660 -71.21152 28844 ft 498 kts 352°
2026-05-04 22:08 -31.78196 -71.21214 29134 ft 498 kts 352°
2026-05-04 22:09 -31.74770 -71.21212 29449 ft 499 kts 355°
2026-05-04 22:09 -31.71293 -71.21033 29753 ft 500 kts 356°
2026-05-04 22:09 -31.67808 -71.20771 30084 ft 499 kts 356°
2026-05-04 22:09 -31.64340 -71.20493 30374 ft 498 kts 356°
2026-05-04 22:10 -31.60887 -71.20225 30670 ft 496 kts 356°
2026-05-04 22:10 -31.57455 -71.19979 30971 ft 494 kts 356°
2026-05-04 22:10 -31.54018 -71.19754 31191 ft 494 kts 355°
2026-05-04 22:10 -31.50588 -71.19541 31411 ft 494 kts 355°
2026-05-04 22:11 -31.47146 -71.19335 31658 ft 493 kts 355°
2026-05-04 22:11 -31.43772 -71.19134 31931 ft 491 kts 355°
2026-05-04 22:11 -31.40363 -71.18933 32194 ft 490 kts 355°
2026-05-04 22:11 -31.36957 -71.18728 32443 ft 489 kts 355°
2026-05-04 22:12 -31.33546 -71.18524 32661 ft 489 kts 355°
2026-05-04 22:12 -31.30149 -71.18320 32876 ft 488 kts 355°
2026-05-04 22:12 -31.26754 -71.18117 33094 ft 487 kts 355°
2026-05-04 22:12 -31.23365 -71.17912 33336 ft 486 kts 355°
2026-05-04 22:13 -31.19996 -71.17710 33526 ft 485 kts 355°
2026-05-04 22:13 -31.16659 -71.17511 33668 ft 486 kts 355°
2026-05-04 22:13 -31.13276 -71.17310 33725 ft 488 kts 355°
2026-05-04 22:13 -31.09890 -71.17110 33948 ft 486 kts 355°
2026-05-04 22:14 -31.06503 -71.16907 34035 ft 488 kts 355°
2026-05-04 22:14 -30.99666 -71.16500 34041 ft 492 kts 355°
2026-05-04 22:15 -30.92876 -71.16098 34018 ft 492 kts 355°
2026-05-04 22:15 -30.86029 -71.15680 34037 ft 492 kts 355°
2026-05-04 22:16 -30.79181 -71.15257 34041 ft 493 kts 355°
2026-05-04 22:16 -30.72335 -71.14847 34036 ft 493 kts 355°
2026-05-04 22:17 -30.65473 -71.14437 34031 ft 493 kts 354°
2026-05-04 22:17 -30.58653 -71.14033 34039 ft 494 kts 354°
2026-05-04 22:18 -30.51776 -71.13623 34039 ft 494 kts 354°
2026-05-04 22:18 -30.44900 -71.13206 34045 ft 494 kts 355°
2026-05-04 22:19 -30.38025 -71.12800 34024 ft 494 kts 354°
2026-05-04 22:19 -30.31145 -71.12398 34043 ft 495 kts 354°
2026-05-04 22:20 -30.24315 -71.12005 34042 ft 495 kts 354°